Tracking 25703 objects as of 2-Jul-2022
HD Live streaming from Space Station
objects crossing your sky now

NOAA 16 DEB

Track NOAA 16 DEB now!
10-day predictions


NORAD ID: 41080
Int'l Code: 2000-055AP
Perigee: 847.2 km
Apogee: 857.3 km
Inclination: 98.7 °
Period: 101.8 minutes
Semi major axis: 7223 km
RCS: Unknown
Launch date: September 21, 2000
Source: United States (US)
Launch site: AIR FORCE WESTERN TEST RANGE (AFWTR)

Note: This is SATELLITE DEBRIS
aabbcc
Your satellite tracking list
Your tracking list is empty




NASA's NSSDC Master Catalog

Two Line Element Set (TLE):
1 41080U 00055AP  22182.61917608  .00000297  00000-0  17813-3 0  9997
2 41080  98.6885 247.3671 0006994  83.8963 276.3007 14.14179299339764
Source of the keplerian elements: AFSPC